Presure
198 188 197 194 191 199 202 202 205 202 203 199 197 198 193 196 193 200 195 183 186 193 194 196 213 199 202 193 197 195 189 194 186 205 204 201 187 173 186 183 179 177 177 179
193 202 195 193 194 192 198 192 199 204 204 196 197 196 192 193 186 200 195 186 193 194 193 193 208 201 197 197 190 193 187 186 185 185 184 184 189 197 176 180 179 178 169 178
205 189 202 203 197 194 197 186 196 215 210 201 195 198 191 194 190 195 198 184 188 192 191 193 190 189 187 192 193 195 195 194 188 175 192 185 194 168 177 173 175 173 173 169
205 199 203 198 201 195 190 200 192 210 213 204 192 194 192 182 187 196 196 191 187 192 189 189 191 192 189 197 186 200 201 196 182 183 187 179 177 178 190 184 184 190 131 174
213 208 195 196 208 203 192 198 196 206 213 200 199 189 193 186 190 197 192 195 190 190 188 186 187 193 193 188 183 187 178 179 178 183 180 186 186 197 188 174 173 169 174 176
209 198 206 202 204 202 203 196 194 197 215 204 202 192 190 186 188 189 196 190 193 187 185 190 182 179 196 191 190 188 188 183 180 181 184 189 189 179 176 185 179 172 182 179
206 203 202 207 191 203 201 198 191 192 201 214 208 193 202 183 179 185 191 194 194 189 190 183 195 191 202 196 197 198 190 192 190 186 193 179 185 179 178 181 176 189 188 184
210 209 205 204 201 195 196 196 199 199 199 217 211 188 189 185 188 190 187 190 191 192 194 188 192 202 200 199 192 198 210 177 187 182 172 176 178 172 193 166 184 181 186 197
207 211 206 204 203 203 198 198 203 200 205 218 210 188 186 181 195 191 189 199 197 188 189 191 187 186 188 197 193 204 196 183 180 190 176 172 188 186 188 182 116 187 185 89
214 218 213 205 222 238 213 200 198 200 209 210 191 188 190 194 195 195 203 202 192 196 187 207 199 192 201 200 199 171 175 186 189 185 186 196 193 178 184 191 186 194 93 101
199 187 212 196 205 221 212 212 201 201 207 191 191 197 195 190 196 194 182 186 174 175 180 179 191 182 183 185 170 170 176 174 190 186 190 188 187 187 195 150 201 207 106 168
197 190 196 206 198 197 225 213 211 214 209 188 187 190 191 194 191 190 197 197 209 173 178 184 169 183 186 181 187 192 170 186 182 188 192 199 187 205 201 191 196 178 191 197
189 203 176 199 180 222 202 197 195 195 193 191 188 192 196 199 200 199 192 191 175 200 210 193 200 205 193 190 178 184 186 127 101 179 89 197 192 189 191 146 189 200 210 211
186 190 197 200 197 200 206 222 207 198 197 202 201 194 198 202 201 202 181 202 195 199 173 182 193 190 191 193 184 178 193 198 156 198 192 168 205 192 114 102 197 153 202 207
193 195 184 185 199 193 190 203 201 199 203 180 200 170 193 191 189 184 190 178 172 177 183 180 184 187 182 181 190 195 193 189 195 190 192 195 197 203 191 196 201 208 203 215
183 195 170 180 189 192 192 180 182 182 187 184 192 171 177 179 170 175 179 183 181 179 185 193 182 179 190 200 184 178 198 196 198 207 203 197 193 200 200 199 204 204 213 212
201 194 192 194 197 200 185 191 179 187 194 192 193 195 183 187 188 172 178 182 196 195 191 180 190 197 197 186 186 192 205 202 199 201 198 197 198 201 205 214 199 216 214 239
206 199 194 197 198 195 181 187 185 193 193 185 190 144 189 190 194 192 192 194 197 197 197 200 199 189 191 196 205 200 200 204 207 203 194 199 204 201 222 228 232 219 254 251
197 210 210 198 200 190 194 197 195 195 195 200 171 164 171 187 196 192 197 199 196 197 186 185 194 204 200 199 198 200 205 205 191 197 208 209 222 220 227 241 222 254 246 293
213 200 202 211 204 203 201 199 202 195 203 169 201 197 198 190 193 199 199 205 204 185 187 197 199 201 200 206 201 193 192 198 213 220 220 214 213 232 231 254 272 279 285 261
213 212 214 197 203 199 204 209 209 209 209 207 198 199 206 201 197 200 203 200 204 204 208 212 208 192 203 206 203 205 202 208 219 231 241 233 251 259 273 295 311 261 347 291
205 203 200 215 212 213 206 204 207 204 197 190 198 206 209 206 194 195 205 199 197 196 204 204 191 210 212 198 203 216 219 221 242 224 243 248 260 275 307 315 331 271 270 277
218 215 207 213 217 216 224 220 214 209 214 212 205 206 210 211 212 207 207 208 212 215 207 210 204 214 213 216 226 212 243 229 236 252 265 261 260 272 278 275 268 284 281 282
225 214 211 214 216 208 208 208 211 212 219 217 215 220 221 214 217 218 209 203 229 226 219 224 225 228 234 223 241 244 249 246 257 254 256 258 270 280 298 289 281 294 304 308
236 226 227 226 222 226 225 226 218 217 212 221 227 159 217 219 227 226 226 229 234 226 226 230 231 218 233 238 259 235 186 264 253 254 247 266 288 305 296 294 301 313 341 435
235 208 218 236 235 227 227 222 221 228 230 182 230 214 227 234 227 213 241 235 251 244 242 248 252 221 260 246 230 266 275 245 249 262 269 291 311 312 317 316 335 401 425 406
248 256 254 233 219 201 220 227 225 221 221 237 240 222 243 249 235 230 237 246 239 243 256 247 235 254 270 277 270 264 256 259 266 282 321 321 327 328 351 340 427 414 394 428
Wind_Speed
40 40 40 39 32 26 22 24 22 23 25 26 24 23 22 19 17 17 17 21 22 16 16 15 13 17 19 19 17 17 20 21 17 18 17 19 19 21 21 25 30 33 36 48
42 42 42 39 35 32 30 30 26 26 28 28 26 25 23 20 20 20 21 23 19 17 17 17 15 17 20 20 22 21 22 25 27 25 24 27 27 27 27 30 36 41 47 47
49 40 40 43 38 35 33 32 29 26 30 32 28 27 24 23 21 21 21 25 23 20 22 21 21 21 23 23 24 25 25 26 29 29 28 32 30 30 31 35 38 41 48 52
51 47 45 42 41 40 36 32 31 27 31 34 30 29 26 24 22 22 22 25 27 24 25 25 27 28 27 27 28 26 25 26 31 32 32 37 42 39 35 36 41 42 48 54
51 52 45 42 41 41 39 36 32 28 31 35 35 30 30 27 25 25 25 26 28 28 28 29 31 32 33 32 32 31 31 34 36 39 36 40 47 41 40 43 47 50 53 58
51 46 50 46 41 43 42 37 35 33 31 36 38 33 29 27 28 27 27 28 30 32 32 34 33 32 38 39 39 35 34 35 38 45 45 45 49 44 46 50 54 56 60 64
51 49 48 47 44 42 43 42 38 37 36 39 41 32 35 30 32 31 31 31 33 34 37 37 39 40 41 43 46 44 38 39 37 40 43 49 59 49 50 54 63 63 65 70
52 53 50 48 48 45 44 43 42 39 38 40 43 32 32 33 35 36 34 34 34 36 37 39 41 42 43 46 48 47 45 36 38 41 47 50 61 59 58 59 67 69 73 77
51 52 49 47 47 48 47 45 44 41 41 43 43 36 36 37 38 38 37 39 39 37 40 42 42 42 45 46 49 51 46 41 43 44 46 51 58 59 63 64 31 73 76 32
54 57 54 50 57 58 56 48 43 42 44 44 38 39 38 39 40 41 41 41 39 40 35 49 41 41 47 50 52 49 50 49 51 50 52 60 61 62 67 69 69 77 31 37
51 50 51 47 47 54 53 53 48 46 46 40 40 42 42 42 44 41 40 42 35 42 36 34 38 44 42 46 50 52 56 53 56 55 62 64 64 68 74 55 81 86 44 72
54 47 50 49 47 46 57 53 51 52 48 43 42 42 44 44 44 45 48 49 51 44 42 42 44 45 50 52 56 59 61 62 57 57 68 72 67 80 79 76 81 74 86 93
54 53 41 49 45 55 49 48 47 46 45 45 45 45 47 46 45 47 50 47 48 47 56 45 53 56 55 56 54 59 68 18 26 56 24 72 74 76 78 58 83 97 101 104
54 53 55 53 49 51 51 55 51 49 50 49 49 48 48 48 48 51 50 52 47 52 49 50 57 56 53 57 57 62 73 75 52 75 75 67 89 85 45 43 95 73 102 111
63 60 54 53 54 51 50 52 52 52 53 42 51 38 49 49 51 43 48 44 46 49 53 53 56 60 51 55 65 72 76 72 75 73 81 86 87 92 89 96 104 112 110 116
56 65 47 53 57 54 53 46 49 50 50 47 55 44 46 48 49 51 52 52 51 50 56 59 58 61 65 67 63 69 82 80 87 93 93 90 89 97 99 97 105 107 121 118
71 68 66 69 66 64 54 57 53 57 61 60 59 58 55 59 61 52 55 57 65 63 62 56 70 73 71 65 72 77 92 92 92 95 93 94 96 102 109 118 97 122 116 126
79 77 73 73 71 67 59 66 64 67 63 50 54 35 65 68 73 69 66 68 71 71 73 74 75 67 74 83 94 91 94 100 103 103 96 103 110 99 124 126 125 115 126 126
74 83 84 77 75 69 73 75 75 73 69 72 41 48 52 70 80 79 81 81 75 70 60 61 75 88 90 90 85 94 104 105 90 101 113 110 121 124 129 127 120 126 124 137
85 79 81 85 80 78 80 82 84 74 81 45 75 75 79 80 82 84 85 86 85 65 72 87 89 94 100 103 99 92 94 104 116 119 120 114 117 126 122 129 134 134 127 121
90 89 89 78 82 80 88 91 90 89 84 79 77 81 86 86 84 86 86 84 86 87 93 98 94 85 100 103 102 110 107 116 118 121 121 120 121 124 129 134 132 118 107 112
85 81 81 94 94 96 92 87 89 85 77 71 84 92 92 90 83 84 95 91 84 83 93 94 86 106 108 94 102 114 117 112 119 114 118 118 124 128 136 129 113 112 110 112
92 94 89 95 95 94 97 96 93 91 95 96 90 92 95 96 98 97 98 100 102 104 96 102 95 106 104 108 115 105 115 113 116 121 125 118 117 126 126 114 110 111 111 112
97 90 89 91 92 87 87 88 92 91 95 97 98 100 100 101 105 107 102 88 110 107 104 108 110 112 113 110 115 116 115 115 121 117 116 116 124 130 125 119 112 116 115 114
100 98 101 98 94 96 97 99 95 95 93 100 105 59 100 103 105 106 108 109 113 109 110 106 110 103 112 114 119 105 76 123 115 115 112 122 136 127 122 118 117 116 106 69
95 87 93 96 99 97 97 96 95 98 98 65 102 93 101 106 104 95 104 104 110 108 106 108 112 99 122 110 101 123 127 110 111 118 124 137 128 125 120 117 113 83 67 65
105 105 106 96 90 78 94 96 97 95 95 101 104 101 104 102 101 102 105 108 104 106 113 111 104 118 125 126 119 114 111 113 121 135 132 126 121 119 113 108 68 65 65 56
Wind_Direction
195 205 197 206 209 202 207 209 212 215 213 214 217 221 228 234 238 253 250 257 267 286 297 300 295 296 297 306 311 313 313 317 309 316 311 307 308 296 312 306 302 302 302 303
204 195 206 207 209 210 209 217 222 224 222 223 224 227 230 236 239 254 253 260 273 286 284 291 293 289 293 293 302 304 307 309 311 316 316 307 311 309 300 307 306 306 301 308
200 207 204 206 208 208 216 223 225 230 223 225 230 233 234 239 246 248 252 265 271 278 279 284 284 285 287 293 295 297 301 302 302 300 309 302 301 296 305 299 300 302 305 306
202 204 208 210 211 213 220 228 225 236 227 225 231 234 237 242 251 254 255 260 269 275 278 286 287 288 289 289 292 294 299 300 295 301 305 302 300 301 310 303 300 302 304 300
205 206 209 209 213 214 221 224 229 237 233 229 233 234 239 245 256 259 260 266 269 275 279 282 285 288 288 290 294 296 301 303 300 300 301 301 299 306 302 302 301 298 302 304
208 210 211 212 211 214 218 224 227 233 242 237 236 237 239 247 255 263 264 267 272 272 276 279 281 286 286 288 287 290 291 295 300 300 301 302 297 301 307 307 302 303 306 305
212 212 214 214 219 219 222 226 229 234 243 244 240 239 246 246 252 259 267 268 271 272 278 281 288 286 287 286 287 288 288 291 294 292 298 300 297 303 304 306 305 306 307 306
215 217 216 217 219 222 226 230 233 236 242 249 246 239 244 249 255 260 262 267 269 272 275 277 283 290 290 289 290 290 291 277 287 285 292 297 298 304 306 304 307 306 306 312
216 221 222 223 225 228 229 232 233 237 245 246 243 242 245 247 260 261 265 269 269 272 277 280 285 285 285 284 286 289 294 289 287 295 291 291 298 303 307 305 297 305 306 307
219 220 223 225 228 226 226 231 234 235 243 241 239 245 251 256 259 262 269 272 271 276 282 286 287 289 290 292 293 282 290 297 301 299 299 301 302 303 301 304 303 309 298 311
218 223 224 224 228 228 230 230 233 235 238 238 243 249 253 255 260 264 266 268 264 272 270 275 281 280 286 289 282 287 292 295 301 301 303 299 302 302 308 311 315 316 314 308
219 226 226 228 228 230 229 231 234 237 236 242 245 249 253 256 259 263 268 270 274 271 276 277 278 284 286 287 294 297 292 297 297 304 304 307 310 312 311 305 312 305 308 310
229 221 229 229 236 233 234 236 239 241 244 246 249 252 256 261 264 266 266 266 273 276 277 281 286 284 284 289 293 297 296 287 328 305 330 306 303 302 305 305 307 309 310 311
232 232 229 228 232 234 237 240 243 245 248 250 253 255 257 260 262 265 265 268 270 272 279 286 283 284 287 292 294 292 298 301 309 307 305 310 309 307 310 308 309 314 311 311
234 236 241 244 234 240 242 242 245 249 250 250 252 256 257 262 263 265 268 267 270 275 278 283 287 288 287 288 297 300 300 300 304 304 304 304 306 307 304 308 310 309 309 311
237 234 236 241 245 242 243 249 250 252 253 256 255 257 262 265 266 267 268 271 274 277 283 286 287 286 292 300 294 289 301 304 305 304 306 304 305 308 307 307 307 310 309 309
233 236 238 240 241 241 247 247 253 256 256 257 262 265 271 272 271 268 273 276 280 283 285 284 291 294 297 294 295 298 302 303 302 304 304 304 305 306 306 306 310 307 308 308
233 238 240 241 243 244 244 249 253 256 257 261 264 269 267 271 274 275 279 280 281 283 287 290 293 294 297 299 299 300 301 302 303 304 304 305 305 307 304 307 306 308 309 309
239 236 238 244 243 248 251 250 252 254 257 259 263 270 266 273 273 277 280 283 287 289 285 289 294 297 298 297 298 300 302 302 302 302 301 301 302 304 305 306 306 309 309 311
238 241 243 242 245 248 250 254 255 260 259 254 264 267 268 271 273 274 278 280 284 290 293 293 295 297 296 296 297 297 298 299 299 300 299 302 302 302 305 308 309 310 311 310
241 242 243 249 248 250 251 253 256 258 262 266 269 269 269 270 274 275 277 281 282 285 285 285 288 290 291 292 294 294 295 295 296 297 300 300 304 306 308 308 310 310 310 313
240 242 245 247 249 250 252 255 259 263 265 265 267 269 271 272 274 276 278 280 282 283 284 286 288 287 287 290 291 291 292 295 296 297 301 304 308 312 312 313 310 311 313 313
241 242 244 249 252 253 256 257 259 262 263 264 267 269 270 271 272 274 276 278 279 281 283 284 284 286 287 289 291 291 294 294 298 303 305 306 307 313 312 311 311 314 313 311
244 244 246 248 251 253 255 259 260 262 263 265 268 270 271 272 274 275 276 279 281 282 283 285 285 287 289 289 292 291 297 300 303 304 304 306 311 312 310 311 313 313 312 311
243 247 250 252 254 255 256 258 258 261 262 265 268 271 271 273 275 275 276 278 280 281 283 286 287 288 290 290 297 295 303 303 301 302 303 309 310 308 309 310 311 311 311 314
244 244 247 249 251 254 258 259 262 264 266 272 269 269 272 274 275 277 281 281 284 284 287 291 294 290 293 294 294 299 302 299 302 305 307 308 306 307 307 309 311 313 315 314
250 250 250 248 248 254 255 258 260 262 265 269 269 269 275 278 276 275 279 282 284 287 294 293 291 294 297 298 299 299 297 301 304 306 303 304 305 306 309 311 315 316 314 315